| time (UTC) | temp C | wind direction | speed KPH | gust KPH | rain 1hr cm | rain 24hr cm | rain mn cm | humidity % | barometer mb |
| 20260904105517 | 23 | 248 | 1.6 | 6.4 | 0.13 | 1.32 | 0.13 | 95 | 1012.3 |
| 20260904104537 | 23 | 315 | 3.2 | 6.4 | 0.00 | 1.19 | 0.00 | 94 | 1012.4 |
| 20260904103518 | 23 | 248 | 1.6 | 4.8 | 0.00 | 1.19 | 0.00 | 94 | 1012.1 |
| 20260904102517 | 23 | 225 | 3.2 | 11.3 | 0.00 | 1.19 | 0.00 | 94 | 1012.1 |
| 20260904101517 | 23 | 225 | 3.2 | 11.3 | 0.00 | 1.19 | 0.00 | 94 | 1012.1 |
| 20260904100517 | 23 | 203 | 1.6 | 8.0 | 0.00 | 1.19 | 0.00 | 95 | 1012.2 |
| 20260904095537 | 24 | 180 | 1.6 | 9.7 | 0.00 | 1.19 | 0.00 | 95 | 1012.1 |
| 20260904094517 | 24 | 0.0 | 3.2 | 0.00 | 1.19 | 0.00 | 95 | 1012.4 | |
| 20260904093517 | 24 | 180 | 1.6 | 4.8 | 0.00 | 1.19 | 0.00 | 95 | 1012.3 |
| 20260904092516 | 24 | 203 | 1.6 | 9.7 | 0.00 | 1.19 | 0.00 | 95 | 1012.4 |
| 20260904091516 | 24 | 180 | 1.6 | 6.4 | 0.00 | 1.19 | 0.00 | 95 | 1012.5 |
| 20260904090517 | 24 | 0.0 | 3.2 | 0.00 | 1.19 | 0.00 | 95 | 1012.5 | |
| 20260904085516 | 24 | 0.0 | 3.2 | 0.00 | 1.19 | 0.00 | 94 | 1012.3 | |
| 20260904084516 | 24 | 225 | 1.6 | 8.0 | 0.00 | 1.19 | 0.00 | 95 | 1012.3 |
| 20260904083558 | 24 | 180 | 3.2 | 6.4 | 0.00 | 1.19 | 0.00 | 95 | 1012.3 |
| 20260904082516 | 24 | 180 | 1.6 | 9.7 | 0.00 | 1.19 | 0.00 | 95 | 1012.3 |
| 20260904081518 | 24 | 225 | 1.6 | 6.4 | 0.00 | 1.19 | 0.00 | 95 | 1012.2 |
| 20260904080516 | 24 | 225 | 3.2 | 12.9 | 0.00 | 1.19 | 0.00 | 95 | 1012.2 |
| 20260904075516 | 24 | 225 | 3.2 | 6.4 | 0.00 | 1.19 | 0.00 | 95 | 1012.1 |
| 20260904074516 | 24 | 203 | 1.6 | 6.4 | 0.00 | 1.19 | 0.00 | 95 | 1012.0 |
| 20260904073518 | 24 | 203 | 1.6 | 8.0 | 0.00 | 1.19 | 0.00 | 95 | 1012.1 |
| 20260904072516 | 24 | 248 | 1.6 | 12.9 | 0.00 | 1.19 | 0.00 | 95 | 1012.0 |
| 20260904071537 | 24 | 225 | 3.2 | 9.7 | 0.00 | 1.19 | 0.00 | 96 | 1011.8 |
| 20260904070536 | 24 | 225 | 3.2 | 9.7 | 0.00 | 1.19 | 0.00 | 96 | 1011.8 |
| 20260904065536 | 24 | 225 | 4.8 | 14.5 | 0.00 | 1.19 | 0.00 | 97 | 1011.8 |
| 20260904064516 | 23 | 225 | 3.2 | 12.9 | 0.00 | 1.19 | 0.00 | 97 | 1011.8 |
| 20260904063518 | 23 | 225 | 1.6 | 6.4 | 0.00 | 1.19 | 0.00 | 97 | 1011.9 |
| 20260904062516 | 23 | 225 | 3.2 | 6.4 | 0.00 | 1.19 | 0.00 | 97 | 1012.0 |
| 20260904061536 | 23 | 225 | 1.6 | 6.4 | 0.00 | 1.19 | 0.00 | 96 | 1012.0 |
| 20260904060516 | 23 | 0.0 | 3.2 | 0.00 | 1.19 | 0.00 | 96 | 1012.1 | |
| 20260904055516 | 23 | 0.0 | 3.2 | 0.00 | 1.19 | 0.00 | 96 | 1012.3 | |
| 20260904054516 | 23 | 0.0 | 6.4 | 0.00 | 1.19 | 0.00 | 96 | 1012.4 | |
| 20260904053536 | 23 | 135 | 4.8 | 6.4 | 0.00 | 1.19 | 0.00 | 96 | 1012.3 |
| 20260904052516 | 23 | 90 | 3.2 | 6.4 | 0.00 | 1.19 | 0.00 | 96 | 1012.6 |
| 20260904051536 | 23 | 113 | 4.8 | 9.7 | 0.00 | 1.19 | 0.00 | 96 | 1012.7 |
| 20260904050517 | 23 | 158 | 1.6 | 8.0 | 0.03 | 1.19 | 0.00 | 96 | 1013.0 |
| 20260904045517 | 23 | 158 | 3.2 | 12.9 | 0.05 | 1.19 | 1.19 | 96 | 1012.9 |
| 20260904044517 | 23 | 113 | 9.7 | 16.1 | 0.05 | 1.19 | 1.19 | 96 | 1012.8 |
| 20260904043517 | 23 | 135 | 9.7 | 20.9 | 0.05 | 1.19 | 1.19 | 96 | 1012.7 |
| 20260904042517 | 23 | 113 | 9.7 | 17.7 | 0.05 | 1.19 | 1.19 | 96 | 1012.7 |
| 20260904041517 | 23 | 135 | 6.4 | 12.9 | 0.05 | 1.19 | 1.19 | 96 | 1012.9 |
| 20260904040517 | 23 | 113 | 6.4 | 11.3 | 0.03 | 1.17 | 1.17 | 95 | 1013.2 |
| 20260904035517 | 23 | 113 | 8.0 | 14.5 | 0.00 | 1.14 | 1.14 | 95 | 1013.3 |
| 20260904034517 | 23 | 113 | 9.7 | 14.5 | 0.00 | 1.14 | 1.14 | 95 | 1013.1 |
| 20260904033517 | 23 | 113 | 9.7 | 17.7 | 0.00 | 1.14 | 1.14 | 95 | 1013.2 |
| 20260904032516 | 23 | 113 | 11.3 | 17.7 | 0.00 | 1.14 | 1.14 | 95 | 1013.3 |
| 20260904031517 | 23 | 90 | 9.7 | 14.5 | 0.00 | 1.14 | 1.14 | 95 | 1013.3 |
| 20260904030557 | 23 | 90 | 8.0 | 14.5 | 0.00 | 1.14 | 1.14 | 95 | 1013.2 |
| 20260904025538 | 23 | 90 | 8.0 | 12.9 | 0.00 | 1.14 | 1.14 | 95 | 1013.3 |
| 20260904024516 | 23 | 90 | 6.4 | 14.5 | 0.00 | 1.14 | 1.14 | 94 | 1013.3 |
| 20260904023518 | 24 | 113 | 8.0 | 12.9 | 0.00 | 1.14 | 1.14 | 94 | 1013.2 |
| 20260904022516 | 24 | 113 | 9.7 | 14.5 | 0.00 | 1.14 | 1.14 | 94 | 1013.2 |
| 20260904021517 | 24 | 113 | 8.0 | 14.5 | 0.00 | 1.14 | 1.14 | 94 | 1013.2 |
| 20260904020537 | 24 | 113 | 8.0 | 12.9 | 0.00 | 1.14 | 1.14 | 94 | 1013.2 |
| 20260904015517 | 24 | 113 | 8.0 | 14.5 | 0.00 | 1.14 | 1.14 | 93 | 1013.2 |
| 20260904014517 | 24 | 113 | 9.7 | 14.5 | 0.00 | 1.14 | 1.14 | 94 | 1012.9 |
| 20260904013517 | 24 | 113 | 9.7 | 14.5 | 0.00 | 1.14 | 1.14 | 93 | 1012.8 |
| 20260904012517 | 24 | 113 | 8.0 | 11.3 | 0.00 | 1.14 | 1.14 | 93 | 1012.5 |
| 20260904011516 | 24 | 113 | 8.0 | 12.9 | 0.00 | 1.14 | 1.14 | 93 | 1012.4 |
| 20260904010557 | 24 | 113 | 8.0 | 12.9 | 0.00 | 1.14 | 1.14 | 92 | 1012.3 |
| 20260904005516 | 25 | 113 | 8.0 | 11.3 | 0.00 | 1.14 | 1.14 | 92 | 1012.2 |
| 20260904004516 | 25 | 113 | 8.0 | 12.9 | 0.00 | 1.14 | 1.14 | 91 | 1012.4 |
| 20260904003516 | 25 | 90 | 6.4 | 11.3 | 0.00 | 1.14 | 1.14 | 90 | 1012.5 |
| 20260904002516 | 25 | 90 | 4.8 | 9.7 | 0.00 | 1.14 | 1.14 | 89 | 1012.6 |
| 20260904001516 | 25 | 90 | 6.4 | 11.3 | 0.00 | 1.14 | 1.14 | 89 | 1012.5 |
| 20260904000516 | 25 | 113 | 8.0 | 12.9 | 0.00 | 1.14 | 1.14 | 88 | 1012.6 |
| 20260903235536 | 26 | 90 | 6.4 | 9.7 | 0.00 | 1.14 | 1.14 | 87 | 1012.7 |
| 20260903234517 | 26 | 113 | 6.4 | 12.9 | 0.00 | 1.14 | 1.14 | 87 | 1012.7 |
| 20260903233516 | 26 | 113 | 4.8 | 12.9 | 0.00 | 1.14 | 1.14 | 86 | 1012.7 |
| 20260903232516 | 26 | 113 | 8.0 | 12.9 | 0.00 | 1.14 | 1.14 | 86 | 1012.8 |
| 20260903231516 | 26 | 90 | 8.0 | 14.5 | 0.00 | 1.14 | 1.14 | 85 | 1012.6 |
| 20260903230516 | 26 | 113 | 6.4 | 11.3 | 0.00 | 1.14 | 1.14 | 84 | 1013.1 |
| 20260903225517 | 26 | 90 | 6.4 | 11.3 | 0.00 | 1.14 | 1.14 | 84 | 1013.0 |
| 20260903224516 | 26 | 90 | 9.7 | 16.1 | 0.00 | 1.14 | 1.14 | 83 | 1013.0 |
| 20260903223516 | 27 | 90 | 6.4 | 11.3 | 0.00 | 1.14 | 1.14 | 83 | 1012.8 |
| 20260903222516 | 27 | 90 | 4.8 | 9.7 | 0.00 | 1.14 | 1.14 | 83 | 1012.9 |
| 20260903221518 | 27 | 90 | 4.8 | 9.7 | 0.00 | 1.14 | 1.14 | 81 | 1012.9 |
| 20260903220518 | 27 | 0.0 | 3.2 | 0.00 | 1.14 | 1.14 | 83 | 1013.0 | |
| 20260903215516 | 26 | 135 | 3.2 | 8.0 | 0.00 | 1.14 | 1.14 | 83 | 1013.2 |
| 20260903214517 | 26 | 158 | 3.2 | 8.0 | 0.00 | 1.14 | 1.14 | 82 | 1013.1 |
| 20260903213516 | 27 | 135 | 6.4 | 12.9 | 0.00 | 1.14 | 1.14 | 82 | 1012.9 |
| 20260903212516 | 27 | 135 | 4.8 | 12.9 | 0.00 | 1.14 | 1.14 | 81 | 1013.1 |
| 20260903211516 | 27 | 135 | 8.0 | 17.7 | 0.00 | 1.14 | 1.14 | 80 | 1013.0 |
| 20260903210516 | 27 | 135 | 4.8 | 12.9 | 0.00 | 1.14 | 1.14 | 84 | 1013.0 |
| 20260903205536 | 26 | 135 | 4.8 | 11.3 | 0.00 | 1.14 | 1.14 | 83 | 1013.0 |
| 20260903204516 | 26 | 135 | 3.2 | 6.4 | 0.00 | 1.14 | 1.14 | 84 | 1013.1 |
| 20260903203536 | 26 | 135 | 6.4 | 14.5 | 0.00 | 1.14 | 1.14 | 84 | 1013.2 |
| 20260903202516 | 26 | 113 | 6.4 | 12.9 | 0.00 | 1.14 | 1.14 | 83 | 1013.2 |
| 20260903201536 | 26 | 113 | 6.4 | 9.7 | 0.00 | 1.14 | 1.14 | 84 | 1013.2 |
| 20260903200516 | 26 | 90 | 3.2 | 6.4 | 0.00 | 1.14 | 1.14 | 83 | 1013.4 |
| 20260903195516 | 26 | 135 | 1.6 | 6.4 | 0.00 | 1.14 | 1.14 | 83 | 1013.7 |
| 20260903194516 | 26 | 0.0 | 3.2 | 0.00 | 1.14 | 1.14 | 84 | 1013.8 | |
| 20260903193517 | 26 | 68 | 1.6 | 4.8 | 0.00 | 1.14 | 1.14 | 85 | 1013.5 |
| 20260903192536 | 25 | 0.0 | 3.2 | 0.00 | 1.14 | 1.14 | 86 | 1013.4 | |
| 20260903191536 | 25 | 135 | 3.2 | 8.0 | 0.00 | 1.14 | 1.14 | 85 | 1013.1 |
| 20260903190516 | 25 | 135 | 6.4 | 12.9 | 0.00 | 1.14 | 1.14 | 87 | 1013.0 |
| 20260903185516 | 25 | 135 | 8.0 | 16.1 | 0.00 | 1.14 | 1.14 | 90 | 1013.0 |
| 20260903184516 | 24 | 90 | 6.4 | 9.7 | 0.00 | 1.14 | 1.14 | 91 | 1013.0 |
| 20260903183516 | 23 | 90 | 4.8 | 11.3 | 0.00 | 1.14 | 1.14 | 93 | 1013.2 |
| 20260903182516 | 23 | 90 | 1.6 | 6.4 | 0.00 | 1.14 | 1.14 | 94 | 1013.2 |
| 20260903181516 | 23 | 68 | 3.2 | 6.4 | 0.00 | 1.14 | 1.14 | 95 | 1013.5 |
| 20260903180516 | 22 | 135 | 6.4 | 12.9 | 0.00 | 1.14 | 1.14 | 95 | 1013.0 |
| 20260903175516 | 22 | 135 | 8.0 | 14.5 | 0.00 | 1.14 | 1.14 | 95 | 1013.1 |
| 20260903174516 | 22 | 135 | 6.4 | 12.9 | 0.00 | 1.14 | 1.14 | 97 | 1013.2 |
| 20260903173516 | 22 | 135 | 9.7 | 16.1 | 0.00 | 1.14 | 1.14 | 97 | 1013.0 |
| 20260903172516 | 22 | 135 | 8.0 | 16.1 | 0.00 | 1.14 | 1.14 | 97 | 1013.2 |
| 20260903171516 | 22 | 158 | 4.8 | 9.7 | 0.05 | 1.14 | 1.14 | 98 | 1013.7 |
| 20260903170536 | 21 | 158 | 3.2 | 8.0 | 0.10 | 1.14 | 1.14 | 98 | 1013.5 |
| 20260903165516 | 21 | 225 | 3.2 | 8.0 | 0.25 | 1.14 | 1.14 | 98 | 1013.9 |
| 20260903164536 | 21 | 203 | 1.6 | 9.7 | 0.36 | 1.14 | 1.14 | 98 | 1014.1 |
| 20260903163516 | 21 | 135 | 6.4 | 12.9 | 0.36 | 1.14 | 1.14 | 98 | 1013.8 |
| 20260903162516 | 21 | 0.0 | 0.0 | 0.41 | 1.14 | 1.14 | 97 | 1014.2 | |
| 20260903161516 | 21 | 158 | 1.6 | 8.0 | 0.41 | 1.09 | 1.09 | 97 | 1014.4 |
| 20260903160516 | 21 | 180 | 4.8 | 9.7 | 0.38 | 1.04 | 1.04 | 97 | 1014.1 |
| 20260903155536 | 21 | 68 | 3.2 | 6.4 | 0.23 | 0.89 | 0.89 | 97 | 1013.5 |
| 20260903154516 | 21 | 135 | 3.2 | 6.4 | 0.15 | 0.79 | 0.79 | 97 | 1013.6 |
| 20260903153516 | 20 | 135 | 8.0 | 14.5 | 0.18 | 0.79 | 0.79 | 97 | 1013.4 |
| 20260903152536 | 20 | 113 | 4.8 | 9.7 | 0.13 | 0.74 | 0.74 | 97 | 1014.0 |
| 20260903151517 | 20 | 0.0 | 4.8 | 0.08 | 0.69 | 0.69 | 97 | 1014.3 | |
| 20260903150536 | 21 | 293 | 4.8 | 12.9 | 0.05 | 0.66 | 0.66 | 97 | 1014.4 |
| 20260903145516 | 20 | 135 | 1.6 | 4.8 | 0.08 | 0.66 | 0.66 | 97 | 1013.8 |
| 20260903144516 | 20 | 68 | 3.2 | 9.7 | 0.10 | 0.64 | 0.64 | 97 | 1013.3 |
| 20260903143516 | 21 | 270 | 8.0 | 14.5 | 0.13 | 0.61 | 0.61 | 97 | 1013.3 |
| 20260903142516 | 20 | 248 | 1.6 | 4.8 | 0.23 | 0.61 | 0.61 | 97 | 1013.4 |
| 20260903141516 | 20 | 270 | 3.2 | 9.7 | 0.28 | 0.61 | 0.61 | 96 | 1014.0 |
| 20260903140516 | 20 | 113 | 4.8 | 11.3 | 0.33 | 0.61 | 0.61 | 96 | 1013.5 |
| 20260903135515 | 20 | 90 | 4.8 | 6.4 | 0.41 | 0.58 | 0.58 | 96 | 1014.1 |
| 20260903134516 | 20 | 270 | 3.2 | 11.3 | 0.41 | 0.53 | 0.53 | 96 | 1014.8 |
| 20260903133536 | 21 | 248 | 8.0 | 12.9 | 0.43 | 0.48 | 0.48 | 96 | 1015.7 |
| 20260903132516 | 21 | 248 | 9.7 | 17.7 | 0.36 | 0.38 | 0.38 | 95 | 1015.9 |
| 20260903131536 | 21 | 225 | 11.3 | 17.7 | 0.33 | 0.33 | 0.33 | 95 | 1015.8 |
| 20260903130515 | 21 | 270 | 12.9 | 22.5 | 0.28 | 0.28 | 0.28 | 94 | 1015.2 |
| 20260903125515 | 21 | 248 | 11.3 | 20.9 | 0.18 | 0.18 | 0.18 | 93 | 1014.9 |
| 20260903124516 | 21 | 248 | 11.3 | 22.5 | 0.13 | 0.13 | 0.13 | 94 | 1014.8 |
| 20260903123556 | 21 | 270 | 12.9 | 24.1 | 0.05 | 0.05 | 0.05 | 94 | 1014.0 |
| 20260903122515 | 21 | 270 | 11.3 | 24.1 | 0.03 | 0.03 | 0.03 | 93 | 1014.2 |
| 20260903121536 | 22 | 270 | 8.0 | 19.3 | 0.00 | 0.00 | 0.00 | 93 | 1014.4 |
| 20260903120515 | 22 | 270 | 9.7 | 17.7 | 0.00 | 0.00 | 0.00 | 94 | 1014.2 |
| 20260903115535 | 22 | 270 | 9.7 | 17.7 | 0.00 | 0.00 | 0.00 | 95 | 1014.1 |
| 20260903114535 | 21 | 248 | 3.2 | 6.4 | 0.00 | 0.00 | 0.00 | 94 | 1014.2 |
| 20260903113515 | 22 | 248 | 6.4 | 16.1 | 0.00 | 0.00 | 0.00 | 94 | 1014.3 |
| 20260903112516 | 22 | 225 | 4.8 | 9.7 | 0.00 | 0.00 | 0.00 | 94 | 1013.7 |
| 20260903111516 | 22 | 203 | 1.6 | 4.8 | 0.00 | 0.00 | 0.00 | 94 | 1013.3 |
| 20260903110536 | 22 | 180 | 1.6 | 3.2 | 0.00 | 0.00 | 0.00 | 94 | 1013.2 |